Date String (YYYY-MM-DD hh:mm:ss) UTC,Instrument flags,Ambient pressure (hPa),Sample flow (lpm),Bypass flow (lpm),Sample temperature (°C),Ambient temperature (°C),ASC tube jacket temperature (°C),LED temperature (°C),Box temperature (°C),Sample RH (%),Span deviation,Mass concentration (μg/m³),Mass concentration (μg/m³),Mass concentration (μg/m³)
DateTimeUTC,F1_M11,P_M11,Q1_M11,Q2_M11,T1_M11,T2_M11,T3_M11,T4_M11,T5_M11,U1_M11,ZSPAN_M11,X0_M11,X2_M11,X1_M11
2022-10-08 11:00:00,,0836.6,4.99,0.00,26.1,24.6,00.0,34.8,28.0,23.1,-001.9,0015.99,0010.22,0009.70
2022-10-08 11:01:00,,0836.6,5.00,0.00,26.1,24.6,00.0,34.8,28.0,23.2,-001.8,0015.95,0010.17,0009.67
2022-10-08 11:02:00,,0836.6,5.01,0.00,26.1,24.6,00.0,34.8,28.0,23.3,-002.0,0015.95,0010.15,0009.64
2022-10-08 11:03:00,,0836.6,4.99,0.00,26.1,24.6,00.0,34.8,28.0,23.3,-002.1,0015.75,0010.05,0009.58
2022-10-08 11:04:00,,0836.6,4.99,0.00,26.1,24.6,00.0,34.8,28.0,23.3,-002.0,0015.30,0009.98,0009.53
2022-10-08 11:05:00,,0836.6,5.01,0.00,26.1,24.6,00.0,34.8,28.0,23.3,-002.0,0014.98,0009.98,0009.52
2022-10-08 11:06:00,,0836.6,4.99,0.00,26.1,24.6,00.0,34.8,28.0,23.2,-001.6,0014.93,0009.96,0009.50
2022-10-08 11:07:00,,0836.6,5.00,0.00,26.1,24.6,00.0,34.8,28.0,23.1,-001.6,0014.66,0009.92,0009.48
2022-10-08 11:08:00,,0836.6,5.02,0.00,26.1,24.6,00.0,34.8,28.0,22.8,-001.4,0014.41,0009.92,0009.50
2022-10-08 11:09:00,,0836.6,5.00,0.00,26.1,24.6,00.0,34.8,28.0,22.9,-001.5,0014.38,0009.92,0009.49
2022-10-08 11:10:00,,0836.6,4.99,0.00,26.1,24.6,00.0,34.8,28.0,23.1,-001.5,0013.46,0009.87,0009.44
2022-10-08 11:11:00,,0836.6,5.01,0.00,26.1,24.6,00.0,34.8,28.0,23.1,-001.6,0013.45,0009.83,0009.39
2022-10-08 11:12:00,,0836.7,4.99,0.00,26.1,24.6,00.0,34.8,27.9,23.0,-001.7,0013.40,0009.78,0009.34
2022-10-08 11:13:00,,0836.6,5.00,0.00,26.1,24.6,00.0,34.8,28.0,23.1,-001.5,0013.29,0009.73,0009.31
2022-10-08 11:14:00,,0836.6,5.01,0.00,26.1,24.6,00.0,34.8,28.0,23.2,-001.2,0013.20,0009.71,0009.30
2022-10-08 11:15:00,,0836.7,5.00,0.00,26.1,24.6,00.0,34.8,27.9,23.1,-001.4,0013.29,0009.73,0009.30
2022-10-08 11:16:00,,0836.6,5.00,0.00,26.0,24.6,00.0,34.8,27.9,22.9,-001.4,0013.27,0009.71,0009.30
2022-10-08 11:17:00,,0836.6,4.99,0.00,26.0,24.5,00.0,34.8,27.9,22.9,-001.6,0013.25,0009.70,0009.31
2022-10-08 11:18:00,,0836.6,5.01,0.00,26.0,24.5,00.0,34.8,27.9,22.8,-001.7,0013.30,0009.73,0009.32
2022-10-08 11:19:00,,0836.6,5.00,0.00,26.0,24.5,00.0,34.8,27.9,22.9,-001.8,0013.32,0009.72,0009.29
2022-10-08 11:20:00,,0836.6,4.99,0.00,26.0,24.5,00.0,34.8,27.9,22.9,-001.9,0013.32,0009.71,0009.28
2022-10-08 11:21:00,,0836.7,5.01,0.00,26.0,24.5,00.0,34.8,27.9,22.9,-001.8,0013.48,0009.72,0009.28
2022-10-08 11:22:00,,0836.6,4.99,0.00,26.0,24.5,00.0,34.8,27.9,22.9,-001.6,0013.74,0009.75,0009.30
2022-10-08 11:23:00,,0836.6,5.01,0.00,26.0,24.5,00.0,34.8,27.9,22.9,-001.5,0013.82,0009.77,0009.32
2022-10-08 11:24:00,,0836.6,5.01,0.00,26.0,24.5,00.0,34.8,27.9,22.9,-001.7,0013.81,0009.77,0009.33
2022-10-08 11:25:00,,0836.6,5.00,0.00,26.0,24.5,00.0,34.8,27.9,22.9,-001.7,0013.97,0009.83,0009.36
2022-10-08 11:26:00,,0836.6,4.99,0.00,26.0,24.5,00.0,34.8,27.9,22.9,-001.6,0014.41,0009.87,0009.37
2022-10-08 11:27:00,,0836.6,5.02,0.00,26.0,24.5,00.0,34.8,27.9,22.8,-001.5,0014.80,0009.90,0009.38
2022-10-08 11:28:00,,0836.6,5.00,0.00,26.0,24.5,00.0,34.8,27.9,22.7,-001.6,0014.92,0009.91,0009.38
2022-10-08 11:29:00,,0836.6,4.99,0.00,26.0,24.5,00.0,34.8,27.9,22.7,-001.8,0014.93,0009.92,0009.38
2022-10-08 11:30:00,,0836.6,5.01,0.00,26.0,24.5,00.0,34.8,27.9,22.6,-001.7,0014.92,0009.94,0009.42
2022-10-08 11:31:00,,0836.6,5.00,0.00,26.0,24.5,00.0,34.8,27.9,22.6,-001.6,0014.93,0009.96,0009.45
2022-10-08 11:32:00,,0836.6,4.99,0.00,26.0,24.5,00.0,34.8,27.9,22.6,-001.7,0014.83,0010.00,0009.51
2022-10-08 11:33:00,,0836.6,4.99,0.00,26.0,24.5,00.0,34.8,27.9,22.5,-001.8,0014.73,0010.06,0009.56
2022-10-08 11:34:00,,0836.6,5.00,0.00,26.0,24.5,00.0,34.8,27.9,22.5,-001.7,0014.76,0010.15,0009.63
2022-10-08 11:35:00,,0836.6,5.00,0.00,26.0,24.5,00.0,34.8,27.9,22.5,-001.4,0014.93,0010.27,0009.71
2022-10-08 11:36:00,,0836.6,5.00,0.00,26.0,24.5,00.0,34.8,27.9,22.5,-001.4,0014.89,0010.29,0009.77
2022-10-08 11:37:00,,0836.6,5.00,0.00,26.0,24.5,00.0,34.7,27.9,22.4,-001.5,0014.53,0010.30,0009.81
2022-10-08 11:38:00,,0836.6,5.01,0.00,26.0,24.5,00.0,34.8,27.9,22.3,-001.5,0014.21,0010.33,0009.86
2022-10-08 11:39:00,,0836.6,4.99,0.00,26.0,24.5,00.0,34.8,27.9,22.3,-001.5,0014.24,0010.38,0009.92
2022-10-08 11:40:00,,0836.6,5.01,0.00,26.0,24.5,00.0,34.7,27.9,22.3,-001.4,0014.58,0010.46,0009.96
2022-10-08 11:41:00,,0836.7,4.99,0.00,26.0,24.5,00.0,34.7,27.9,22.3,-001.2,0014.68,0010.50,0009.97
2022-10-08 11:42:00,,0836.6,5.00,0.00,26.0,24.5,00.0,34.8,27.9,22.2,-001.3,0014.83,0010.58,0010.01
2022-10-08 11:43:00,,0836.6,4.99,0.00,26.0,24.4,00.0,34.8,27.8,22.2,-001.4,0014.91,0010.62,0010.03
2022-10-08 11:44:00,,0836.6,4.99,0.00,26.0,24.4,00.0,34.8,27.8,22.2,-001.4,0015.02,0010.65,0010.08
2022-10-08 11:45:00,,0836.6,5.00,0.00,26.0,24.4,00.0,34.8,27.9,22.2,-001.6,0015.27,0010.69,0010.10
2022-10-08 11:46:00,,0836.7,5.00,0.00,26.0,24.4,00.0,34.7,27.9,22.2,-001.9,0015.27,0010.66,0010.08
2022-10-08 11:47:00,,0836.7,5.02,0.00,26.0,24.4,00.0,34.7,27.9,22.1,-001.9,0015.31,0010.68,0010.09
2022-10-08 11:48:00,,0836.7,4.99,0.00,26.0,24.4,00.0,34.7,27.9,22.2,-002.0,0015.39,0010.73,0010.12
2022-10-08 11:49:00,,0836.7,5.00,0.00,25.9,24.4,00.0,34.7,27.8,22.2,-002.2,0015.64,0010.76,0010.15
2022-10-08 11:50:00,,0836.7,5.01,0.00,25.9,24.4,00.0,34.7,27.8,22.1,-002.2,0015.86,0010.77,0010.15
2022-10-08 11:51:00,,0836.7,5.00,0.00,25.9,24.4,00.0,34.7,27.8,22.1,-002.3,0015.66,0010.78,0010.18
2022-10-08 11:52:00,,0836.7,4.99,0.00,25.9,24.4,00.0,34.7,27.8,22.0,-002.4,0015.57,0010.79,0010.20
2022-10-08 11:53:00,,0836.7,5.01,0.00,25.9,24.4,00.0,34.7,27.8,22.1,-002.3,0015.50,0010.77,0010.20
2022-10-08 11:54:00,,0836.7,5.00,0.00,25.9,24.4,00.0,34.7,27.8,22.2,-002.3,0015.47,0010.78,0010.23
2022-10-08 11:55:00,,0836.7,5.01,0.00,25.9,24.4,00.0,34.7,27.8,22.2,-002.3,0015.38,0010.78,0010.21
2022-10-08 11:56:00,,0836.7,5.00,0.00,25.9,24.4,00.0,34.7,27.8,22.2,-002.3,0015.03,0010.70,0010.17
2022-10-08 11:57:00,,0836.7,5.00,0.00,25.9,24.4,00.0,34.7,27.8,22.1,-002.3,0014.94,0010.66,0010.16
2022-10-08 11:58:00,,0836.7,4.99,0.00,25.9,24.4,00.0,34.7,27.8,22.0,-002.5,0014.87,0010.60,0010.13
2022-10-08 11:59:00,,0836.7,5.01,0.00,25.9,24.4,00.0,34.7,27.8,21.9,-002.7,0014.83,0010.56,0010.10
